Location: John Bryan Observatory, Ohio
(39.7800°N, 83.8500°E)
Time: 17:56:14
(UTC-05:00)

ISS - Visible Passes

Search period start: 16 January 2018 00:00
Search period end: 26 January 2018 00:00
Orbit: 401 x 406 km, 51.6° (Epoch: 17 January)

Date Brightness Start Highest point End Pass type
(mag) Time Alt. Az. Time Alt. Az. Time Alt. Az.
16 Jan -2.3 18:41:51 32° SSE 18:41:51 32° SSE 18:43:47 10° SE visible
17 Jan -1.5 19:24:38 12° SW 19:24:38 12° SW 19:25:43 10° SSW visible
24 Jan -2.6 08:21:58 10° SSW 08:24:06 33° S 08:24:06 33° S visible
25 Jan -2.4 07:30:04 10° S 07:32:42 23° SE 07:34:09 17° E visible
25 Jan -0.8 09:05:58 10° W 09:06:49 16° W 09:06:49 16° W visible
